Weather Roundup
Issued by NWS Chicago, IL

Home | Current Version | Previous Version | Graphics & Text | Print | Product List | Glossary On
Versions: 1 2 3 4 5 6 7 8 9 10 11 12 13 14 15 16 17 18 19 20 21 22 23 24 25 26 27 28 29 30 31 32 33 34 35 36 37 38 39 40 41 42 43 44 45 46 47 48 49 50
000
NZUS59 KLOT 070908
HRRLOT

CHICAGO AREA WEATHER ROUNDUP
NATIONAL WEATHER SERVICE CHICAGO/ROMEOVILLE IL
300 AM CST WED DEC 07 2016

NOTE: "FAIR" INDICATES FEW OR NO CLOUDS BELOW 12,000 FEET WITH NO
SIGNIFICANT WEATHER AND/OR OBSTRUCTIONS TO VISIBILITY.

* THESE STATIONS ARE NOT UNDER NWS QUALITY CONTROL. THEY ALSO MAY NOT
  REPORT WEATHER SUCH AS PRECIPITATION OR FOG.

ILZ005-006-012>014-019>023-071000-
NORTHEAST ILLINOIS

CITY           SKY/WX    TMP DP  RH WIND       PRES   REMARKS
OHARE          MOCLDY    26  18  71 W16G25    30.00S WCI  14
MIDWAY         CLOUDY    28  17  63 W18G25    30.02S WCI  15
AURORA         PTCLDY    27  18  69 W16       30.03R WCI  15
LANSING*       PTCLDY    28  20  74 W13G18    30.04S WCI  17
JOLIET*        PTCLDY    29  21  71 W7        30.05F WCI  22
WAUKEGAN       CLEAR     25  16  68 W10G22    29.96S WCI  15
DUPAGE AIRPORT CLOUDY    25  16  68 W17       30.01S WCI  12
WHEELING       PTCLDY    26  17  68 W13G23    30.01S WCI  15
KANKAKEE*      CLOUDY    28  21  75 W10       30.08R WCI  19
MORRIS*        MOCLDY    28  20  71 W13       30.04S WCI  17
LEWIS AIRPORT* CLOUDY    27  22  84 W14       30.04S WCI  15
NORTHERLY ISL    N/A     28  18  66 W15         N/A  WCI  17
$$

WIZ051-052-058>065-066-070>072-071000-
SOUTHEAST WISCONSIN

CITY           SKY/WX    TMP DP  RH WIND       PRES   REMARKS
MILWAUKEE      CLEAR     26  15  63 W16G28    29.94R WCI  14
KENOSHA*       CLEAR     24  17  74 W21G29    29.96R WCI   9
RACINE*        CLEAR     25  15  66 W13G28    29.96R WCI  14
BURLINGTON     CLEAR     24  17  77 SW17G24   29.96S WCI  10
WAUKESHA       CLEAR     21  16  79 SW13G20   29.94R WCI   9
WEST BEND      PTCLDY    23  18  80 SW8       29.90R WCI  14
$$

INZ001>003-010>013-019-020-071000-
NORTHWEST INDIANA

CITY           SKY/WX    TMP DP  RH WIND       PRES   REMARKS
GARY*          PTCLDY    30  19  64 W12G20    30.04S WCI  20
MICHIGAN CITY* NOT AVBL
RENSSELAER*    NOT AVBL
VALPARAISO     CLOUDY    28  18  66 W20G25    30.03R WCI  15
$$

LMZ740>746-071000-
SOUTHERN LAKE MICHIGAN

STATION/POSITION TIME  SKY/WX   TEMP WIND        PRES    VSBY
                                AIR  DIR/SP/G
                 (UTC)          (F)  (DEG/KT/KT) (MB)    (MI)
HARRISON CRIB    0840            29  270/ 25/ 27   N/A
BURNHAM HARBOR   0900            28  250/ 10/ 15   N/A
CALUMET HARBOR   0842            28  240/ 11/ 16 1016.1R
BURNS HARBOR     0859            31  260/ 23/ 25 1016.9R
MICHIGAN CITY    0840            30  230/ 27/ 30   N/A
$$

ABBREVIATIONS USED IN REMARKS
   TC - TEMPERATURE IN CELSIUS
  WCI - WIND CHILL INDEX
   HX - HEAT INDEX
  VSB - VISIBILITY
$$



USA.gov is the U.S. government's official web portal to all federal, state and local government web resources and services.